Year,Month,Day,Hour,Minute,Value (Times are PST for temperature in C)
2019,04,17,00,00,1.80
2019,04,17,00,01,1.80
2019,04,17,00,02,1.80
2019,04,17,00,03,1.80
2019,04,17,00,04,1.80
2019,04,17,00,05,1.80
2019,04,17,00,06,1.70
2019,04,17,00,07,1.70
2019,04,17,00,08,1.70
2019,04,17,00,09,1.70
2019,04,17,00,10,1.70
2019,04,17,00,11,1.70
2019,04,17,00,12,1.60
2019,04,17,00,13,1.60
2019,04,17,00,14,1.60
2019,04,17,00,15,1.60
2019,04,17,00,16,1.50
2019,04,17,00,17,1.50
2019,04,17,00,18,1.50
2019,04,17,00,19,1.40
2019,04,17,00,20,1.40
2019,04,17,00,21,1.40
2019,04,17,00,22,1.40
2019,04,17,00,23,1.30
2019,04,17,00,24,1.30
2019,04,17,00,25,1.30
2019,04,17,00,26,1.30
2019,04,17,00,27,1.30
2019,04,17,00,28,1.20
2019,04,17,00,29,1.20
2019,04,17,00,30,1.20
2019,04,17,00,31,1.10
2019,04,17,00,32,1.10
2019,04,17,00,33,1.10
2019,04,17,00,34,1.00
2019,04,17,00,35,1.00
2019,04,17,00,36,0.90
2019,04,17,00,37,0.90
2019,04,17,00,38,0.90
2019,04,17,00,39,0.90
2019,04,17,00,40,0.90
2019,04,17,00,41,0.90
2019,04,17,00,42,0.90
2019,04,17,00,43,0.90
2019,04,17,00,44,0.80
2019,04,17,00,45,0.80
2019,04,17,00,46,0.80
2019,04,17,00,47,0.80
2019,04,17,00,48,0.80
2019,04,17,00,49,0.80
2019,04,17,00,50,0.80
2019,04,17,00,51,0.80
2019,04,17,00,52,0.70
2019,04,17,00,53,0.70
2019,04,17,00,54,0.70
2019,04,17,00,55,0.70
2019,04,17,00,56,0.60
2019,04,17,00,57,0.60
2019,04,17,00,58,0.60
2019,04,17,00,59,0.60
2019,04,17,01,00,0.60
2019,04,17,01,01,0.50
2019,04,17,01,02,0.50
2019,04,17,01,03,0.40
2019,04,17,01,04,0.40
2019,04,17,01,05,0.40
2019,04,17,01,06,0.40
2019,04,17,01,07,0.30
2019,04,17,01,08,0.30
2019,04,17,01,09,0.30
2019,04,17,01,10,0.30
2019,04,17,01,11,0.30
2019,04,17,01,12,0.30
2019,04,17,01,13,0.30
2019,04,17,01,14,0.30
2019,04,17,01,15,0.20
2019,04,17,01,16,0.20
2019,04,17,01,17,0.20
2019,04,17,01,18,0.20
2019,04,17,01,19,0.10
2019,04,17,01,20,0.10
2019,04,17,01,21,0.10
2019,04,17,01,22,0.10
2019,04,17,01,23,0.10
2019,04,17,01,24,0.00
2019,04,17,01,25,0.00
2019,04,17,01,26,0.00
2019,04,17,01,27,0.00
2019,04,17,01,28,0.00
2019,04,17,01,29,0.00
2019,04,17,01,30,0.00
2019,04,17,01,31,-0.10
2019,04,17,01,32,-0.10
2019,04,17,01,33,-0.10
2019,04,17,01,34,-0.10
2019,04,17,01,35,-0.20
2019,04,17,01,36,-0.20
2019,04,17,01,37,-0.20
2019,04,17,01,38,-0.30
2019,04,17,01,39,-0.30
2019,04,17,01,40,-0.30
2019,04,17,01,41,-0.40
2019,04,17,01,42,-0.40
2019,04,17,01,43,-0.40
2019,04,17,01,44,-0.50
2019,04,17,01,45,-0.50
2019,04,17,01,46,-0.50
2019,04,17,01,47,-0.60
2019,04,17,01,48,-0.60
2019,04,17,01,49,-0.60
2019,04,17,01,50,-0.60
2019,04,17,01,51,-0.60
2019,04,17,01,52,-0.60
2019,04,17,01,53,-0.70
2019,04,17,01,54,-0.70
2019,04,17,01,55,-0.70
2019,04,17,01,56,-0.70
2019,04,17,01,57,-0.70
2019,04,17,01,58,-0.70
2019,04,17,01,59,-0.70
2019,04,17,02,00,-0.70
2019,04,17,02,01,-0.70
2019,04,17,02,02,-0.70
2019,04,17,02,03,-0.70
2019,04,17,02,04,-0.70
2019,04,17,02,05,-0.70
2019,04,17,02,06,-0.70
2019,04,17,02,07,-0.70
2019,04,17,02,08,-0.70
2019,04,17,02,09,-0.70
2019,04,17,02,10,-0.70
2019,04,17,02,11,-0.70
2019,04,17,02,12,-0.70
2019,04,17,02,13,-0.70
2019,04,17,02,14,-0.70
2019,04,17,02,15,-0.70
2019,04,17,02,16,-0.70
2019,04,17,02,17,-0.70
2019,04,17,02,18,-0.70
2019,04,17,02,19,-0.80
2019,04,17,02,20,-0.70
2019,04,17,02,21,-0.80
2019,04,17,02,22,-0.80
2019,04,17,02,23,-0.80
2019,04,17,02,24,-0.80
2019,04,17,02,25,-0.80
2019,04,17,02,26,-0.80
2019,04,17,02,27,-0.80
2019,04,17,02,28,-0.80
2019,04,17,02,29,-0.90
2019,04,17,02,30,-0.90
2019,04,17,02,31,-0.90
2019,04,17,02,32,-0.90
2019,04,17,02,33,-1.00
2019,04,17,02,34,-1.00
2019,04,17,02,35,-1.00
2019,04,17,02,36,-1.00
2019,04,17,02,37,-1.00
2019,04,17,02,38,-1.10
2019,04,17,02,39,-1.10
2019,04,17,02,40,-1.10
2019,04,17,02,41,-1.10
2019,04,17,02,42,-1.10
2019,04,17,02,43,-1.10
2019,04,17,02,44,-1.10
2019,04,17,02,45,-1.20
2019,04,17,02,46,-1.20
2019,04,17,02,47,-1.20
2019,04,17,02,48,-1.20
2019,04,17,02,49,-1.20
2019,04,17,02,50,-1.30
2019,04,17,02,51,-1.30
2019,04,17,02,52,-1.30
2019,04,17,02,53,-1.30
2019,04,17,02,54,-1.30
2019,04,17,02,55,-1.30
2019,04,17,02,56,-1.30
2019,04,17,02,57,-1.30
2019,04,17,02,58,-1.30
2019,04,17,02,59,-1.40
2019,04,17,03,00,-1.40
2019,04,17,03,01,-1.40
2019,04,17,03,02,-1.40
2019,04,17,03,03,-1.40
2019,04,17,03,04,-1.40
2019,04,17,03,05,-1.40
2019,04,17,03,06,-1.40
2019,04,17,03,07,-1.40
2019,04,17,03,08,-1.40
2019,04,17,03,09,-1.40
2019,04,17,03,10,-1.40
2019,04,17,03,11,-1.50
2019,04,17,03,12,-1.50
2019,04,17,03,13,-1.50
2019,04,17,03,14,-1.50
2019,04,17,03,15,-1.50
2019,04,17,03,16,-1.50
2019,04,17,03,17,-1.50
2019,04,17,03,18,-1.50
2019,04,17,03,19,-1.50
2019,04,17,03,20,-1.50
2019,04,17,03,21,-1.50
2019,04,17,03,22,-1.60
2019,04,17,03,23,-1.60
2019,04,17,03,24,-1.60
2019,04,17,03,25,-1.60
2019,04,17,03,26,-1.60
2019,04,17,03,27,-1.60
2019,04,17,03,28,-1.60
2019,04,17,03,29,-1.60
2019,04,17,03,30,-1.60
2019,04,17,03,31,-1.60
2019,04,17,03,32,-1.60
2019,04,17,03,33,-1.60
2019,04,17,03,34,-1.60
2019,04,17,03,35,-1.60
2019,04,17,03,36,-1.60
2019,04,17,03,37,-1.60
2019,04,17,03,38,-1.70
2019,04,17,03,39,-1.70
2019,04,17,03,40,-1.70
2019,04,17,03,41,-1.70
2019,04,17,03,42,-1.70
2019,04,17,03,43,-1.70
2019,04,17,03,44,-1.60
2019,04,17,03,45,-1.60
2019,04,17,03,46,-1.60
2019,04,17,03,47,-1.60
2019,04,17,03,48,-1.60
2019,04,17,03,49,-1.60
2019,04,17,03,50,-1.60
2019,04,17,03,51,-1.70
2019,04,17,03,52,-1.70
2019,04,17,03,53,-1.70
2019,04,17,03,54,-1.70
2019,04,17,03,55,-1.70
2019,04,17,03,56,-1.70
2019,04,17,03,57,-1.70
2019,04,17,03,58,-1.70
2019,04,17,03,59,-1.70
2019,04,17,04,00,-1.80
2019,04,17,04,01,-1.80
2019,04,17,04,02,-1.80
2019,04,17,04,03,-1.80
2019,04,17,04,04,-1.80
2019,04,17,04,05,-1.80
2019,04,17,04,06,-1.80
2019,04,17,04,07,-1.90
2019,04,17,04,08,-1.90
2019,04,17,04,09,-1.90
2019,04,17,04,10,-1.90
2019,04,17,04,11,-1.90
2019,04,17,04,12,-1.90
2019,04,17,04,13,-1.90
2019,04,17,04,14,-1.90
2019,04,17,04,15,-1.90
2019,04,17,04,16,-2.00
2019,04,17,04,17,-2.00
2019,04,17,04,18,-2.00
2019,04,17,04,19,-2.00
2019,04,17,04,20,-2.00
2019,04,17,04,21,-2.10
2019,04,17,04,22,-2.10
2019,04,17,04,23,-2.10
2019,04,17,04,24,-2.10
2019,04,17,04,25,-2.10
2019,04,17,04,26,-2.10
2019,04,17,04,27,-2.20
2019,04,17,04,28,-2.20
2019,04,17,04,29,-2.20
2019,04,17,04,30,-2.20
2019,04,17,04,31,-2.20
2019,04,17,04,32,-2.20
2019,04,17,04,33,-2.20
2019,04,17,04,34,-2.20
2019,04,17,04,35,-2.20
2019,04,17,04,36,-2.20
2019,04,17,04,37,-2.20
2019,04,17,04,38,-2.20
2019,04,17,04,39,-2.20
2019,04,17,04,40,-2.20
2019,04,17,04,41,-2.20
2019,04,17,04,42,-2.20
2019,04,17,04,43,-2.20
2019,04,17,04,44,-2.30
2019,04,17,04,45,-2.20
2019,04,17,04,46,-2.20
2019,04,17,04,47,-2.20
2019,04,17,04,48,-2.30
2019,04,17,04,49,-2.30
2019,04,17,04,50,-2.30
2019,04,17,04,51,-2.30
2019,04,17,04,52,-2.30
2019,04,17,04,53,-2.30
2019,04,17,04,54,-2.30
2019,04,17,04,55,-2.30
2019,04,17,04,56,-2.30
2019,04,17,04,57,-2.30
2019,04,17,04,58,-2.30
2019,04,17,04,59,-2.30
2019,04,17,05,00,-2.30
2019,04,17,05,01,-2.30
2019,04,17,05,02,-2.30
2019,04,17,05,03,-2.30
2019,04,17,05,04,-2.30
2019,04,17,05,05,-2.30
2019,04,17,05,06,-2.30
2019,04,17,05,07,-2.30
2019,04,17,05,08,-2.30
2019,04,17,05,09,-2.30
2019,04,17,05,10,-2.40
2019,04,17,05,11,-2.40
2019,04,17,05,12,-2.40
2019,04,17,05,13,-2.40
2019,04,17,05,14,-2.40
2019,04,17,05,15,-2.40
2019,04,17,05,16,-2.40
2019,04,17,05,17,-2.40
2019,04,17,05,18,-2.40
2019,04,17,05,19,-2.40
2019,04,17,05,20,-2.40
2019,04,17,05,21,-2.40
2019,04,17,05,22,-2.40
2019,04,17,05,23,-2.40
2019,04,17,05,24,-2.50
2019,04,17,05,25,-2.50
2019,04,17,05,26,-2.50
2019,04,17,05,27,-2.50
2019,04,17,05,28,-2.50
2019,04,17,05,29,-2.60
2019,04,17,05,30,-2.60
2019,04,17,05,31,-2.60
2019,04,17,05,32,-2.60
2019,04,17,05,33,-2.60
2019,04,17,05,34,-2.60
2019,04,17,05,35,-2.60
2019,04,17,05,36,-2.60
2019,04,17,05,37,-2.60
2019,04,17,05,38,-2.60
2019,04,17,05,39,-2.60
2019,04,17,05,40,-2.60
2019,04,17,05,41,-2.60
2019,04,17,05,42,-2.70
2019,04,17,05,43,-2.70
2019,04,17,05,44,-2.70
2019,04,17,05,45,-2.70
2019,04,17,05,46,-2.70
2019,04,17,05,47,-2.70
2019,04,17,05,48,-2.70
2019,04,17,05,49,-2.70
2019,04,17,05,50,-2.70
2019,04,17,05,51,-2.70
2019,04,17,05,52,-2.70
2019,04,17,05,53,-2.70
2019,04,17,05,54,-2.70
2019,04,17,05,55,-2.70
2019,04,17,05,56,-2.70
2019,04,17,05,57,-2.70
2019,04,17,05,58,-2.70
2019,04,17,05,59,-2.70
2019,04,17,06,00,-2.70
2019,04,17,06,01,-2.70
2019,04,17,06,02,-2.70
2019,04,17,06,03,-2.70
2019,04,17,06,04,-2.70
2019,04,17,06,05,-2.70
2019,04,17,06,06,-2.80
2019,04,17,06,07,-2.80
2019,04,17,06,08,-2.80
2019,04,17,06,09,-2.80
2019,04,17,06,10,-2.80
2019,04,17,06,11,-2.80
2019,04,17,06,12,-2.80
2019,04,17,06,13,-2.80
2019,04,17,06,14,-2.80
2019,04,17,06,15,-2.80
2019,04,17,06,16,-2.90
2019,04,17,06,17,-2.90
2019,04,17,06,18,-2.90
2019,04,17,06,19,-2.90
2019,04,17,06,20,-2.90
2019,04,17,06,21,-3.00
2019,04,17,06,22,-3.00
2019,04,17,06,23,-3.00
2019,04,17,06,24,-3.00
2019,04,17,06,25,-3.00
2019,04,17,06,26,-3.10
2019,04,17,06,27,-3.10
2019,04,17,06,28,-3.00
2019,04,17,06,29,-3.00
2019,04,17,06,30,-3.10
2019,04,17,06,31,-3.10
2019,04,17,06,32,-3.10
2019,04,17,06,33,-3.10
2019,04,17,06,34,-3.10
2019,04,17,06,35,-3.10
2019,04,17,06,36,-3.10
2019,04,17,06,37,-3.10
2019,04,17,06,38,-3.10
2019,04,17,06,39,-3.20
2019,04,17,06,40,-3.20
2019,04,17,06,41,-3.20
2019,04,17,06,42,-3.20
2019,04,17,06,43,-3.20
2019,04,17,06,44,-3.20
2019,04,17,06,45,-3.20
2019,04,17,06,46,-3.20
2019,04,17,06,47,-3.20
2019,04,17,06,48,-3.30
2019,04,17,06,49,-3.30
2019,04,17,06,50,-3.30
2019,04,17,06,51,-3.30
2019,04,17,06,52,-3.30
2019,04,17,06,53,-3.30
2019,04,17,06,54,-3.30
2019,04,17,06,55,-3.30
2019,04,17,06,56,-3.30
2019,04,17,06,57,-3.30
2019,04,17,06,58,-3.30
2019,04,17,06,59,-3.30
2019,04,17,07,00,-3.30
2019,04,17,07,01,-3.30
2019,04,17,07,02,-3.30
2019,04,17,07,03,-3.30
2019,04,17,07,04,-3.30
2019,04,17,07,05,-3.30
2019,04,17,07,06,-3.30
2019,04,17,07,07,-3.30
2019,04,17,07,08,-3.30
2019,04,17,07,09,-3.30
2019,04,17,07,10,-3.30
2019,04,17,07,11,-3.30
2019,04,17,07,12,-3.30
2019,04,17,07,13,-3.30
2019,04,17,07,14,-3.30
2019,04,17,07,15,-3.30
2019,04,17,07,16,-3.30
2019,04,17,07,17,-3.30
2019,04,17,07,18,-3.30
2019,04,17,07,19,-3.30
2019,04,17,07,20,-3.30
2019,04,17,07,21,-3.40
2019,04,17,07,22,-3.40
2019,04,17,07,23,-3.40
2019,04,17,07,24,-3.40
2019,04,17,07,25,-3.40
2019,04,17,07,26,-3.40
2019,04,17,07,27,-3.40
2019,04,17,07,28,-3.40
2019,04,17,07,29,-3.40
2019,04,17,07,30,-3.40
2019,04,17,07,31,-3.40
2019,04,17,07,32,-3.40
2019,04,17,07,33,-3.40
2019,04,17,07,34,-3.40
2019,04,17,07,35,-3.40
2019,04,17,07,36,-3.40
2019,04,17,07,37,-3.40
2019,04,17,07,38,-3.40
2019,04,17,07,39,-3.40
2019,04,17,07,40,-3.40
2019,04,17,07,41,-3.50
2019,04,17,07,42,-3.50
2019,04,17,07,43,-3.50
2019,04,17,07,44,-3.50
2019,04,17,07,45,-3.50
2019,04,17,07,46,-3.50
2019,04,17,07,47,-3.50
2019,04,17,07,48,-3.50
2019,04,17,07,49,-3.50
2019,04,17,07,50,-3.50
2019,04,17,07,51,-3.50
2019,04,17,07,52,-3.50
2019,04,17,07,53,-3.50
2019,04,17,07,54,-3.50
2019,04,17,07,55,-3.50
2019,04,17,07,56,-3.50
2019,04,17,07,57,-3.50
2019,04,17,07,58,-3.50
2019,04,17,07,59,-3.50
2019,04,17,08,00,-3.50
2019,04,17,08,01,-3.40
2019,04,17,08,02,-3.40
2019,04,17,08,03,-3.50
2019,04,17,08,04,-3.50
2019,04,17,08,05,-3.50
2019,04,17,08,06,-3.50
2019,04,17,08,07,-3.50
2019,04,17,08,08,-3.50
2019,04,17,08,09,-3.50
2019,04,17,08,10,-3.50
2019,04,17,08,11,-3.50
2019,04,17,08,12,-3.60
2019,04,17,08,13,-3.60
2019,04,17,08,14,-3.60
2019,04,17,08,15,-3.60
2019,04,17,08,16,-3.60
2019,04,17,08,17,-3.60
2019,04,17,08,18,-3.60
2019,04,17,08,19,-3.60
2019,04,17,08,20,-3.60
2019,04,17,08,21,-3.50
2019,04,17,08,22,-3.50
2019,04,17,08,23,-3.50
2019,04,17,08,24,-3.50
2019,04,17,08,25,-3.40
2019,04,17,08,26,-3.40
2019,04,17,08,27,-3.40
2019,04,17,08,28,-3.40
2019,04,17,08,29,-3.40
2019,04,17,08,30,-3.40
2019,04,17,08,31,-3.40
2019,04,17,08,32,-3.40
2019,04,17,08,33,-3.40
2019,04,17,08,34,-3.40
2019,04,17,08,35,-3.30
2019,04,17,08,36,-3.30
2019,04,17,08,37,-3.30
2019,04,17,08,38,-3.30
2019,04,17,08,39,-3.30
2019,04,17,08,40,-3.30
2019,04,17,08,41,-3.30
2019,04,17,08,42,-3.30
2019,04,17,08,43,-3.30
2019,04,17,08,44,-3.30
2019,04,17,08,45,-3.30
2019,04,17,08,46,-3.30
2019,04,17,08,47,-3.30
2019,04,17,08,48,-3.30
2019,04,17,08,49,-3.30
2019,04,17,08,50,-3.30
2019,04,17,08,51,-3.30
2019,04,17,08,52,-3.30
2019,04,17,08,53,-3.30
2019,04,17,08,54,-3.30
2019,04,17,08,55,-3.30
2019,04,17,08,56,-3.30
2019,04,17,08,57,-3.30
2019,04,17,08,58,-3.30
2019,04,17,08,59,-3.30
2019,04,17,09,00,-3.30
2019,04,17,09,01,-3.30
2019,04,17,09,02,-3.30
2019,04,17,09,03,-3.20
2019,04,17,09,04,-3.20
2019,04,17,09,05,-3.20
2019,04,17,09,06,-3.20
2019,04,17,09,07,-3.20
2019,04,17,09,08,-3.10
2019,04,17,09,09,-3.10
2019,04,17,09,10,-3.10
2019,04,17,09,11,-3.10
2019,04,17,09,12,-3.10
2019,04,17,09,13,-3.10
2019,04,17,09,14,-3.00
2019,04,17,09,15,-3.00
2019,04,17,09,16,-3.00
2019,04,17,09,17,-3.00
2019,04,17,09,18,-3.00
2019,04,17,09,19,-3.00
2019,04,17,09,20,-3.00
2019,04,17,09,21,-3.00
2019,04,17,09,22,-3.00
2019,04,17,09,23,-3.00
2019,04,17,09,24,-2.90
2019,04,17,09,25,-2.90
2019,04,17,09,26,-2.90
2019,04,17,09,27,-2.80
2019,04,17,09,28,-2.80
2019,04,17,09,29,-2.70
2019,04,17,09,30,-2.60
2019,04,17,09,31,-2.50
2019,04,17,09,32,-2.40
2019,04,17,09,33,-2.30
2019,04,17,09,34,-2.10
2019,04,17,09,35,-2.00
2019,04,17,09,36,-1.80
2019,04,17,09,37,-1.70
2019,04,17,09,38,-1.60
2019,04,17,09,39,-1.50
2019,04,17,09,40,-1.40
2019,04,17,09,41,-1.40
2019,04,17,09,42,-1.30
2019,04,17,09,43,-1.30
2019,04,17,09,44,-1.20
2019,04,17,09,45,-1.20
2019,04,17,09,46,-1.10
2019,04,17,09,47,-1.10
2019,04,17,09,48,-1.10
2019,04,17,09,49,-1.10
2019,04,17,09,50,-1.00
2019,04,17,09,51,-1.00
2019,04,17,09,52,-1.00
2019,04,17,09,53,-0.90
2019,04,17,09,54,-0.90
2019,04,17,09,55,-0.90
2019,04,17,09,56,-0.80
2019,04,17,09,57,-0.80
2019,04,17,09,58,-0.80
2019,04,17,09,59,-0.70
2019,04,17,10,00,-0.60
2019,04,17,10,01,-0.50
2019,04,17,10,02,-0.50
2019,04,17,10,03,-0.40
2019,04,17,10,04,-0.30
2019,04,17,10,05,-0.30
2019,04,17,10,06,-0.20
2019,04,17,10,07,-0.20
2019,04,17,10,08,-0.20
2019,04,17,10,09,-0.10
2019,04,17,10,10,-0.10
2019,04,17,10,11,-0.10
2019,04,17,10,12,0.00
2019,04,17,10,13,0.10
2019,04,17,10,14,0.10
2019,04,17,10,15,0.20
2019,04,17,10,16,0.30
2019,04,17,10,17,0.30
2019,04,17,10,18,0.40
2019,04,17,10,19,0.40
2019,04,17,10,20,0.50
2019,04,17,10,21,0.50
2019,04,17,10,22,0.60
2019,04,17,10,23,0.60
2019,04,17,10,24,0.70
2019,04,17,10,25,0.70
2019,04,17,10,26,0.70
2019,04,17,10,27,0.80
2019,04,17,10,28,0.80
2019,04,17,10,29,0.90
2019,04,17,10,30,0.90
2019,04,17,10,31,0.90
2019,04,17,10,32,1.00
2019,04,17,10,33,1.00
2019,04,17,10,34,1.10
2019,04,17,10,35,1.10
2019,04,17,10,36,1.20
2019,04,17,10,37,1.30
2019,04,17,10,38,1.40
2019,04,17,10,39,1.50
2019,04,17,10,40,1.60
2019,04,17,10,41,1.60
2019,04,17,10,42,1.70
2019,04,17,10,43,1.80
2019,04,17,10,44,1.80
2019,04,17,10,45,1.90
2019,04,17,10,46,2.00
2019,04,17,10,47,2.10
2019,04,17,10,48,2.20
2019,04,17,10,49,2.20
2019,04,17,10,50,2.30
2019,04,17,10,51,2.30
2019,04,17,10,52,2.30
2019,04,17,10,53,2.40
2019,04,17,10,54,2.40
2019,04,17,10,55,2.50
2019,04,17,10,56,2.60
2019,04,17,10,57,2.60
2019,04,17,10,58,2.70
2019,04,17,10,59,2.80
2019,04,17,11,00,2.80
2019,04,17,11,01,2.90
2019,04,17,11,02,3.00
2019,04,17,11,03,3.10
2019,04,17,11,04,3.20
2019,04,17,11,05,3.20
2019,04,17,11,06,3.30
2019,04,17,11,07,3.40
2019,04,17,11,08,3.40
2019,04,17,11,09,3.50
2019,04,17,11,10,3.60
2019,04,17,11,11,3.70
2019,04,17,11,12,3.80
2019,04,17,11,13,3.90
2019,04,17,11,14,4.00
2019,04,17,11,15,4.00
2019,04,17,11,16,4.00
2019,04,17,11,17,4.10
2019,04,17,11,18,4.10
2019,04,17,11,19,4.10
2019,04,17,11,20,4.10
2019,04,17,11,21,4.20
2019,04,17,11,22,4.20
2019,04,17,11,23,4.20
2019,04,17,11,24,4.30
2019,04,17,11,25,4.30
2019,04,17,11,26,4.30
2019,04,17,11,27,4.30
2019,04,17,11,28,4.40
2019,04,17,11,29,4.40
2019,04,17,11,30,4.50
2019,04,17,11,31,4.60
2019,04,17,11,32,4.70
2019,04,17,11,33,4.80
2019,04,17,11,34,4.90
2019,04,17,11,35,5.00
2019,04,17,11,36,5.10
2019,04,17,11,37,5.20
2019,04,17,11,38,5.30
2019,04,17,11,39,5.40
2019,04,17,11,40,5.50
2019,04,17,11,41,5.60
2019,04,17,11,42,5.70
2019,04,17,11,43,5.70
2019,04,17,11,44,5.80
2019,04,17,11,45,5.80
2019,04,17,11,46,5.90
2019,04,17,11,47,6.00
2019,04,17,11,48,6.10
2019,04,17,11,49,6.10
2019,04,17,11,50,6.10
2019,04,17,11,51,6.10
2019,04,17,11,52,6.10
2019,04,17,11,53,6.20
2019,04,17,11,54,6.20
2019,04,17,11,55,6.30
2019,04,17,11,56,6.40
2019,04,17,11,57,6.40
2019,04,17,11,58,6.50
2019,04,17,11,59,6.50
2019,04,17,12,00,6.60
2019,04,17,12,01,6.60
2019,04,17,12,02,6.60
2019,04,17,12,03,6.60
2019,04,17,12,04,6.60
2019,04,17,12,05,6.60
2019,04,17,12,06,6.60
2019,04,17,12,07,6.60
2019,04,17,12,08,6.70
2019,04,17,12,09,6.70
2019,04,17,12,10,6.80
2019,04,17,12,11,6.90
2019,04,17,12,12,7.00
2019,04,17,12,13,7.10
2019,04,17,12,14,7.20
2019,04,17,12,15,7.30
2019,04,17,12,16,7.40
2019,04,17,12,17,7.50
2019,04,17,12,18,7.50
2019,04,17,12,19,7.60
2019,04,17,12,20,7.60
2019,04,17,12,21,7.70
2019,04,17,12,22,7.70
2019,04,17,12,23,7.80
2019,04,17,12,24,7.90
2019,04,17,12,25,7.90
2019,04,17,12,26,8.00
2019,04,17,12,27,8.00
2019,04,17,12,28,8.10
2019,04,17,12,29,8.20
2019,04,17,12,30,8.30
2019,04,17,12,31,8.30
2019,04,17,12,32,8.40
2019,04,17,12,33,8.40
2019,04,17,12,34,8.50
2019,04,17,12,35,8.60
2019,04,17,12,36,8.60
2019,04,17,12,37,8.70
2019,04,17,12,38,8.70
2019,04,17,12,39,8.80
2019,04,17,12,40,8.80
2019,04,17,12,41,8.80
2019,04,17,12,42,8.80
2019,04,17,12,43,8.80
2019,04,17,12,44,8.80
2019,04,17,12,45,8.90
2019,04,17,12,46,9.00
2019,04,17,12,47,9.10
2019,04,17,12,48,9.20
2019,04,17,12,49,9.20
2019,04,17,12,50,9.30
2019,04,17,12,51,9.30
2019,04,17,12,52,9.30
2019,04,17,12,53,9.30
2019,04,17,12,54,9.30
2019,04,17,12,55,9.30
2019,04,17,12,56,9.40
2019,04,17,12,57,9.40
2019,04,17,12,58,9.50
2019,04,17,12,59,9.50
2019,04,17,13,00,9.60
2019,04,17,13,01,9.60
2019,04,17,13,02,9.70
2019,04,17,13,03,9.70
2019,04,17,13,04,9.70
2019,04,17,13,05,9.80
2019,04,17,13,06,9.80
2019,04,17,13,07,9.80
2019,04,17,13,08,9.80
2019,04,17,13,09,9.80
2019,04,17,13,10,9.80
2019,04,17,13,11,9.80
2019,04,17,13,12,9.80
2019,04,17,13,13,9.70
2019,04,17,13,14,9.50
2019,04,17,13,15,9.50
2019,04,17,13,16,9.40
2019,04,17,13,17,9.30
2019,04,17,13,18,9.30
2019,04,17,13,19,9.40
2019,04,17,13,20,9.40
2019,04,17,13,21,9.50
2019,04,17,13,22,9.70
2019,04,17,13,23,9.80
2019,04,17,13,24,9.90
2019,04,17,13,25,10.00
2019,04,17,13,26,10.10
2019,04,17,13,27,10.10
2019,04,17,13,28,10.20
2019,04,17,13,29,10.20
2019,04,17,13,30,10.20
2019,04,17,13,31,10.20
2019,04,17,13,32,10.20
2019,04,17,13,33,10.20
2019,04,17,13,34,10.20
2019,04,17,13,35,10.20
2019,04,17,13,36,10.20
2019,04,17,13,37,10.20
2019,04,17,13,38,10.30
2019,04,17,13,39,10.30
2019,04,17,13,40,10.40
2019,04,17,13,41,10.50
2019,04,17,13,42,10.60
2019,04,17,13,43,10.80
2019,04,17,13,44,10.90
2019,04,17,13,45,11.00
2019,04,17,13,46,11.10
2019,04,17,13,47,11.10
2019,04,17,13,48,11.10
2019,04,17,13,49,11.20
2019,04,17,13,50,11.20
2019,04,17,13,51,11.20
2019,04,17,13,52,11.20
2019,04,17,13,53,11.30
2019,04,17,13,54,11.40
2019,04,17,13,55,11.40
2019,04,17,13,56,11.40
2019,04,17,13,57,11.50
2019,04,17,13,58,11.60
2019,04,17,13,59,11.60
2019,04,17,14,00,11.70
2019,04,17,14,01,11.70
2019,04,17,14,02,11.70
2019,04,17,14,03,11.80
2019,04,17,14,04,11.90
2019,04,17,14,05,11.90
2019,04,17,14,06,11.90
2019,04,17,14,07,11.90
2019,04,17,14,08,11.90
2019,04,17,14,09,11.90
2019,04,17,14,10,11.90
2019,04,17,14,11,11.80
2019,04,17,14,12,11.80
2019,04,17,14,13,11.80
2019,04,17,14,14,11.90
2019,04,17,14,15,11.90
2019,04,17,14,16,11.90
2019,04,17,14,17,11.90
2019,04,17,14,18,12.00
2019,04,17,14,19,12.00
2019,04,17,14,20,12.00
2019,04,17,14,21,12.10
2019,04,17,14,22,12.10
2019,04,17,14,23,12.10
2019,04,17,14,24,12.00
2019,04,17,14,25,12.00
2019,04,17,14,26,12.00
2019,04,17,14,27,12.00
2019,04,17,14,28,12.00
2019,04,17,14,29,12.00
2019,04,17,14,30,12.00
2019,04,17,14,31,12.00
2019,04,17,14,32,12.00
2019,04,17,14,33,11.90
2019,04,17,14,34,11.80
2019,04,17,14,35,11.80
2019,04,17,14,36,11.80
2019,04,17,14,37,11.80
2019,04,17,14,38,11.80
2019,04,17,14,39,11.90
2019,04,17,14,40,11.90
2019,04,17,14,41,11.90
2019,04,17,14,42,12.00
2019,04,17,14,43,12.00
2019,04,17,14,44,12.10
2019,04,17,14,45,12.10
2019,04,17,14,46,12.10
2019,04,17,14,47,12.10
2019,04,17,14,48,12.10
2019,04,17,14,49,12.20
2019,04,17,14,50,12.20
2019,04,17,14,51,12.30
2019,04,17,14,52,12.40
2019,04,17,14,53,12.50
2019,04,17,14,54,12.60
2019,04,17,14,55,12.60
2019,04,17,14,56,12.70
2019,04,17,14,57,12.70
2019,04,17,14,58,12.70
2019,04,17,14,59,12.60
2019,04,17,15,00,12.60
2019,04,17,15,01,12.60
2019,04,17,15,02,12.50
2019,04,17,15,03,12.50
2019,04,17,15,04,12.40
2019,04,17,15,05,12.30
2019,04,17,15,06,12.30
2019,04,17,15,07,12.20
2019,04,17,15,08,12.20
2019,04,17,15,09,12.30
2019,04,17,15,10,12.30
2019,04,17,15,11,12.30
2019,04,17,15,12,12.30
2019,04,17,15,13,12.30
2019,04,17,15,14,12.30
2019,04,17,15,15,12.30
2019,04,17,15,16,12.30
2019,04,17,15,17,12.30
2019,04,17,15,18,12.30
2019,04,17,15,19,12.30
2019,04,17,15,20,12.30
2019,04,17,15,21,12.20
2019,04,17,15,22,12.20
2019,04,17,15,23,12.20
2019,04,17,15,24,12.20
2019,04,17,15,25,12.20
2019,04,17,15,26,12.30
2019,04,17,15,27,12.30
2019,04,17,15,28,12.40
2019,04,17,15,29,12.40
2019,04,17,15,30,12.40
2019,04,17,15,31,12.40
2019,04,17,15,32,12.30
2019,04,17,15,33,12.30
2019,04,17,15,34,12.20
2019,04,17,15,35,12.20
2019,04,17,15,36,12.20
2019,04,17,15,37,12.20
2019,04,17,15,38,12.20
2019,04,17,15,39,12.20
2019,04,17,15,40,12.30
2019,04,17,15,41,12.30
2019,04,17,15,42,12.40
2019,04,17,15,43,12.50
2019,04,17,15,44,12.50
2019,04,17,15,45,12.60
2019,04,17,15,46,12.70
2019,04,17,15,47,12.70
2019,04,17,15,48,12.60
2019,04,17,15,49,12.60
2019,04,17,15,50,12.60
2019,04,17,15,51,12.60
2019,04,17,15,52,12.60
2019,04,17,15,53,12.60
2019,04,17,15,54,12.60
2019,04,17,15,55,12.60
2019,04,17,15,56,12.60
2019,04,17,15,57,12.70
2019,04,17,15,58,12.70
2019,04,17,15,59,12.70
2019,04,17,16,00,12.70
2019,04,17,16,01,12.70
2019,04,17,16,02,12.70
2019,04,17,16,03,12.70
2019,04,17,16,04,12.70
2019,04,17,16,05,12.70
2019,04,17,16,06,12.60
2019,04,17,16,07,12.60
2019,04,17,16,08,12.60
2019,04,17,16,09,12.60
2019,04,17,16,10,12.70
2019,04,17,16,11,12.70
2019,04,17,16,12,12.80
2019,04,17,16,13,12.80
2019,04,17,16,14,12.80
2019,04,17,16,15,12.80
2019,04,17,16,16,12.80
2019,04,17,16,17,12.90
2019,04,17,16,18,12.90
2019,04,17,16,19,12.90
2019,04,17,16,20,12.90
2019,04,17,16,21,12.90
2019,04,17,16,22,12.90
2019,04,17,16,23,12.90
2019,04,17,16,24,12.80
2019,04,17,16,25,12.80
2019,04,17,16,26,12.80
2019,04,17,16,27,12.80
2019,04,17,16,28,12.80
2019,04,17,16,29,12.80
2019,04,17,16,30,12.80
2019,04,17,16,31,12.80
2019,04,17,16,32,12.80
2019,04,17,16,33,12.80
2019,04,17,16,34,12.80
2019,04,17,16,35,12.80
2019,04,17,16,36,12.80
2019,04,17,16,37,12.70
2019,04,17,16,38,12.70
2019,04,17,16,39,12.80
2019,04,17,16,40,12.80
2019,04,17,16,41,12.80
2019,04,17,16,42,12.70
2019,04,17,16,43,12.70
2019,04,17,16,44,12.70
2019,04,17,16,45,12.70
2019,04,17,16,46,12.70
2019,04,17,16,47,12.70
2019,04,17,16,48,12.60
2019,04,17,16,49,12.60
2019,04,17,16,50,12.60
2019,04,17,16,51,12.60
2019,04,17,16,52,12.60
2019,04,17,16,53,12.60
2019,04,17,16,54,12.60
2019,04,17,16,55,12.60
2019,04,17,16,56,12.60
2019,04,17,16,57,12.60
2019,04,17,16,58,12.60
2019,04,17,16,59,12.60
2019,04,17,17,00,12.60
2019,04,17,17,01,12.60
2019,04,17,17,02,12.60
2019,04,17,17,03,12.50
2019,04,17,17,04,12.50
2019,04,17,17,05,12.50
2019,04,17,17,06,12.50
2019,04,17,17,07,12.40
2019,04,17,17,08,12.40
2019,04,17,17,09,12.40
2019,04,17,17,10,12.40
2019,04,17,17,11,12.40
2019,04,17,17,12,12.50
2019,04,17,17,13,12.60
2019,04,17,17,14,12.60
2019,04,17,17,15,12.70
2019,04,17,17,16,12.80
2019,04,17,17,17,12.80
2019,04,17,17,18,12.90
2019,04,17,17,19,12.90
2019,04,17,17,20,12.90
2019,04,17,17,21,13.00
2019,04,17,17,22,13.00
2019,04,17,17,23,13.10
2019,04,17,17,24,13.10
2019,04,17,17,25,13.20
2019,04,17,17,26,13.20
2019,04,17,17,27,13.20
2019,04,17,17,28,13.20
2019,04,17,17,29,13.30
2019,04,17,17,30,13.30
2019,04,17,17,31,13.30